CFG25 EDXW-EDDH

Flight info

Callsign CFG25
Flight time 0h 29m
Altitude 9000
Route OLDIP1B OLDIP DCT BADOS DCT RENSU DCT BOGMU BOGMU3P
Aircraft A320/M-SDE3FGHIRWY/LB1

Departure

Time 2026-04-24 16:08
Airport Westerland Sylt Airport (EDXW)

Arrival

Time 2026-04-24 16:37
Airport Hamburg Helmut Schmidt Airport (EDDH)
Time Latitude Longitude Altitude Speed Heading
2026-04-24 15:44 54.92072 8.33817 45 ft 0 kts 265°
2026-04-24 15:58 54.92066 8.33798 46 ft 3 kts 237°
2026-04-24 15:58 54.92042 8.33773 46 ft 5 kts 206°
2026-04-24 15:58 54.92003 8.33737 45 ft 7 kts 215°
2026-04-24 15:58 54.91971 8.33647 41 ft 11 kts 246°
2026-04-24 15:59 54.91957 8.33494 39 ft 13 kts 262°
2026-04-24 15:59 54.91945 8.33392 41 ft 13 kts 254°
2026-04-24 15:59 54.91874 8.33240 42 ft 12 kts 217°
2026-04-24 15:59 54.91807 8.33187 40 ft 10 kts 199°
2026-04-24 16:00 54.91689 8.33175 39 ft 27 kts 180°
2026-04-24 16:00 54.91562 8.33176 36 ft 27 kts 180°
2026-04-24 16:00 54.91428 8.33229 32 ft 17 kts 155°
2026-04-24 16:00 54.91298 8.33206 32 ft 9 kts 208°
2026-04-24 16:01 54.91265 8.33181 35 ft 6 kts 197°
2026-04-24 16:01 54.91240 8.33178 36 ft 2 kts 179°
2026-04-24 16:01 54.91223 8.33179 37 ft 3 kts 177°
2026-04-24 16:01 54.91181 8.33180 37 ft 9 kts 179°
2026-04-24 16:02 54.91160 8.33181 19 ft 2 kts 179°
2026-04-24 16:02 54.91159 8.33181 20 ft 0 kts 179°
2026-04-24 16:03 54.91147 8.33181 37 ft 10 kts 179°
2026-04-24 16:03 54.90996 8.33129 39 ft 21 kts 208°
2026-04-24 16:03 54.90912 8.33147 38 ft 14 kts 151°
2026-04-24 16:03 54.90795 8.33212 36 ft 18 kts 172°
2026-04-24 16:04 54.90672 8.33232 34 ft 18 kts 176°
2026-04-24 16:04 54.90550 8.33254 32 ft 17 kts 169°
2026-04-24 16:04 54.90440 8.33319 31 ft 16 kts 149°
2026-04-24 16:04 54.90354 8.33429 30 ft 15 kts 135°
2026-04-24 16:05 54.90251 8.33846 29 ft 12 kts 98°
2026-04-24 16:05 54.90240 8.33977 29 ft 10 kts 98°
2026-04-24 16:06 54.90246 8.34249 30 ft 21 kts 79°
2026-04-24 16:06 54.90272 8.34490 32 ft 19 kts 81°
2026-04-24 16:06 54.90311 8.34864 38 ft 19 kts 81°
2026-04-24 16:07 54.90355 8.35118 41 ft 20 kts 55°
2026-04-24 16:07 54.90454 8.35127 42 ft 4 kts 326°
2026-04-24 16:07 54.90909 8.34566 43 ft 98 kts 324°
2026-04-24 16:08 54.91600 8.33718 182 ft 132 kts 325°
2026-04-24 16:08 54.93047 8.31933 1745 ft 130 kts 327°
2026-04-24 16:09 54.94831 8.29722 2918 ft 176 kts 326°
2026-04-24 16:09 54.95843 8.28462 3590 ft 182 kts 326°
2026-04-24 16:09 54.96898 8.27148 3917 ft 189 kts 325°
2026-04-24 16:09 54.97963 8.25816 3980 ft 189 kts 324°
2026-04-24 16:10 54.97709 8.19380 4340 ft 221 kts 240°
2026-04-24 16:11 54.95791 8.15156 5871 ft 224 kts 237°
2026-04-24 16:11 54.94630 8.13302 6578 ft 236 kts 211°
2026-04-24 16:11 54.92982 8.12735 7163 ft 255 kts 178°
2026-04-24 16:12 54.89829 8.16392 7770 ft 301 kts 124°
2026-04-24 16:12 54.88579 8.19376 8449 ft 309 kts 124°
2026-04-24 16:12 54.86022 8.25540 9139 ft 317 kts 124°
2026-04-24 16:13 54.84732 8.28642 9163 ft 317 kts 124°
2026-04-24 16:13 54.82150 8.34837 9166 ft 316 kts 124°
2026-04-24 16:14 54.79584 8.40969 9161 ft 316 kts 125°
2026-04-24 16:14 54.78237 8.43981 9165 ft 317 kts 127°
2026-04-24 16:14 54.75412 8.49844 9163 ft 317 kts 129°
2026-04-24 16:15 54.74448 8.51801 9156 ft 317 kts 129°
2026-04-24 16:15 54.71136 8.58558 9164 ft 317 kts 129°
2026-04-24 16:16 54.68310 8.64391 9155 ft 316 kts 128°
2026-04-24 16:16 54.66898 8.67311 9166 ft 316 kts 128°
2026-04-24 16:17 54.62658 8.76041 9167 ft 316 kts 128°
2026-04-24 16:17 54.59824 8.81858 9165 ft 316 kts 128°
2026-04-24 16:18 54.56996 8.87654 9152 ft 316 kts 128°
2026-04-24 16:18 54.54167 8.93441 9150 ft 316 kts 128°
2026-04-24 16:18 54.52767 8.96297 9151 ft 316 kts 128°
2026-04-24 16:19 54.49927 9.02074 9156 ft 316 kts 128°
2026-04-24 16:19 54.48507 9.04962 9145 ft 316 kts 128°
2026-04-24 16:20 54.45667 9.10737 9147 ft 316 kts 128°
2026-04-24 16:20 54.42820 9.16506 9162 ft 316 kts 128°
2026-04-24 16:20 54.41398 9.19380 9160 ft 316 kts 128°
2026-04-24 16:21 54.38550 9.25129 9143 ft 315 kts 128°
2026-04-24 16:21 54.37130 9.27993 9146 ft 315 kts 128°
2026-04-24 16:21 54.35709 9.30859 9144 ft 315 kts 128°
2026-04-24 16:22 54.34290 9.33717 9140 ft 315 kts 128°
2026-04-24 16:22 54.31447 9.39422 9146 ft 315 kts 128°
2026-04-24 16:22 54.30023 9.42270 9145 ft 315 kts 128°
2026-04-24 16:23 54.28600 9.45116 9145 ft 315 kts 128°
2026-04-24 16:23 54.27177 9.47961 9149 ft 315 kts 128°
2026-04-24 16:23 54.25753 9.50806 9146 ft 315 kts 128°
2026-04-24 16:24 54.22907 9.56489 9146 ft 314 kts 129°
2026-04-24 16:24 54.21484 9.59319 9161 ft 314 kts 128°
2026-04-24 16:24 54.20054 9.62154 9150 ft 315 kts 129°
2026-04-24 16:24 54.18547 9.64870 9146 ft 316 kts 134°
2026-04-24 16:25 54.16978 9.67491 9142 ft 316 kts 134°
2026-04-24 16:25 54.15402 9.70101 9147 ft 316 kts 134°
2026-04-24 16:25 54.13823 9.72711 9141 ft 316 kts 134°
2026-04-24 16:26 54.10664 9.77930 9137 ft 316 kts 134°
2026-04-24 16:26 54.09080 9.80540 9132 ft 316 kts 134°
2026-04-24 16:26 54.05917 9.85729 9141 ft 315 kts 134°
2026-04-24 16:27 54.04341 9.88312 8958 ft 313 kts 134°
2026-04-24 16:27 54.02794 9.90836 8574 ft 312 kts 134°
2026-04-24 16:27 54.01211 9.93405 8197 ft 310 kts 134°
2026-04-24 16:27 53.99674 9.95888 7787 ft 309 kts 134°
2026-04-24 16:28 53.98095 9.98430 7158 ft 313 kts 134°
2026-04-24 16:28 53.96522 10.00949 6555 ft 309 kts 134°
2026-04-24 16:28 53.93455 10.05854 5380 ft 297 kts 135°
2026-04-24 16:29 53.91976 10.08259 4809 ft 292 kts 135°
2026-04-24 16:29 53.90526 10.10642 4227 ft 288 kts 135°
2026-04-24 16:29 53.87703 10.15361 3964 ft 286 kts 134°
2026-04-24 16:30 53.84891 10.20124 3061 ft 281 kts 134°
2026-04-24 16:30 53.83525 10.22464 2987 ft 279 kts 134°
2026-04-24 16:30 53.82166 10.24800 2997 ft 278 kts 134°
2026-04-24 16:31 53.80812 10.27124 2997 ft 277 kts 134°
2026-04-24 16:31 53.79385 10.29239 2985 ft 266 kts 152°
2026-04-24 16:31 53.77700 10.30060 2995 ft 245 kts 187°
2026-04-24 16:31 53.76219 10.29158 2993 ft 216 kts 229°
2026-04-24 16:32 53.75685 10.27857 2994 ft 198 kts 259°
2026-04-24 16:32 53.75369 10.24928 3031 ft 183 kts 256°
2026-04-24 16:32 53.74794 10.23089 3001 ft 169 kts 244°
2026-04-24 16:32 53.74141 10.21569 2996 ft 154 kts 240°
2026-04-24 16:33 53.73501 10.20189 3002 ft 148 kts 239°
2026-04-24 16:33 53.72847 10.18817 2909 ft 147 kts 239°
2026-04-24 16:33 53.72202 10.17486 2759 ft 146 kts 240°
2026-04-24 16:33 53.71556 10.16158 2578 ft 146 kts 240°
2026-04-24 16:34 53.70915 10.14849 2390 ft 143 kts 238°
2026-04-24 16:34 53.70284 10.13562 2193 ft 141 kts 239°
2026-04-24 16:34 53.69665 10.12300 2002 ft 139 kts 240°
2026-04-24 16:34 53.69059 10.11065 1806 ft 138 kts 238°
2026-04-24 16:35 53.68442 10.09805 1615 ft 139 kts 238°
2026-04-24 16:35 53.67824 10.08549 1431 ft 137 kts 239°
2026-04-24 16:35 53.67223 10.07329 1236 ft 134 kts 239°
2026-04-24 16:35 53.66631 10.06123 1043 ft 134 kts 237°
2026-04-24 16:36 53.66035 10.04914 847 ft 134 kts 236°
2026-04-24 16:36 53.65444 10.03712 664 ft 133 kts 237°
2026-04-24 16:36 53.64860 10.02527 496 ft 130 kts 238°
2026-04-24 16:36 53.64275 10.01342 304 ft 132 kts 236°
2026-04-24 16:37 53.63690 10.00158 106 ft 131 kts 236°
2026-04-24 16:37 53.63165 9.99076 46 ft 87 kts 230°
2026-04-24 16:37 53.62974 9.98690 44 ft 46 kts 230°
2026-04-24 16:37 53.62766 9.98479 44 ft 20 kts 186°
2026-04-24 16:38 53.62742 9.98476 43 ft 0 kts 183°
2026-04-24 16:38 53.62715 9.98482 43 ft 11 kts 161°
2026-04-24 16:39 53.62702 9.98577 43 ft 9 kts 57°
2026-04-24 16:39 53.62746 9.98663 43 ft 13 kts 50°
2026-04-24 16:39 53.62805 9.98780 43 ft 15 kts 50°
2026-04-24 16:39 53.62891 9.98961 43 ft 20 kts 50°
2026-04-24 16:40 53.62977 9.99134 44 ft 18 kts 50°
2026-04-24 16:40 53.63049 9.99284 44 ft 11 kts 52°
2026-04-24 16:40 53.63075 9.99343 45 ft 3 kts 56°
2026-04-24 16:40 53.63081 9.99357 45 ft 0 kts 56°
2026-04-24 16:41 53.63081 9.99359 45 ft 2 kts 56°
2026-04-24 16:41 53.63123 9.99462 46 ft 13 kts 54°
2026-04-24 16:42 53.63175 9.99582 44 ft 13 kts 51°
2026-04-24 16:42 53.63204 9.99634 44 ft 0 kts 46°
2026-04-24 16:43 53.63247 9.99711 45 ft 16 kts 46°
2026-04-24 16:43 53.63317 9.99837 45 ft 14 kts 49°
2026-04-24 16:43 53.63374 9.99953 45 ft 12 kts 50°
2026-04-24 16:44 53.63424 10.00063 46 ft 11 kts 64°
2026-04-24 16:44 53.63407 10.00172 44 ft 9 kts 132°
2026-04-24 16:44 53.63359 10.00229 46 ft 8 kts 164°
2026-04-24 16:44 53.63302 10.00235 46 ft 11 kts 177°
2026-04-24 16:45 53.63213 10.00246 46 ft 13 kts 175°
2026-04-24 16:45 53.63163 10.00304 46 ft 9 kts 76°
2026-04-24 16:45 53.63168 10.00366 46 ft 0 kts 88°